sat.trackr.live / text

‹ back to catalog

2023-072G

NORAD 56749 · 2023-072G

PAYLOAD ACTIVE UNKNOWN

§ Identity

Operator
Country
SKOR
Launch date
2023-05-25
Launch site
NSC
Launch vehicle
Mass (kg)
RCS (m²)

External: N2YO · Heavens-Above · Gunter

§ Orbital elements

Epoch: 2026-05-25T04:59:26.264832Z

Period
92.96 min
Inclination
97.4935°
Eccentricity
0.0005230
Mean motion
15.49113304 rev/d
Perigee alt
415.8 km
Apogee alt
422.9 km
Semi-major
6,797.5 km
B*
5.0796e-4
RAAN
352.1681°
Arg perigee
76.9733°
Mean anomaly
283.2101°
Rev number
16,690

§ Raw data

2023-072G1 56749U 23072G   26145.20794288  .00027570  00000+0  50796-3 0  99932 56749  97.4935 352.1681 0005230  76.9733 283.2101 15.49113304166901

JSON: /api/v1/satellites/56749 · /tle

For live sub-satellite position, see the globe view (requires WebGL).

§ Visibility from observer

Set your observer location to see the next 7 days of passes ≥ 10°. The values pass through the URL so the page stays shareable.

No JS? Fill the form by hand. The geolocation button needs JavaScript.

§ Radio — SatNOGS DB

ModeDescriptionDownlinkUplink
MSK AX.100 Mode 5 Mode U - MSK4k8 435.450 MHz

1 transmitter · refreshed weekly from db.satnogs.org